WetterOnline ( http://www.wetteronline.de )

Wetter aktuell Bamberg

Aktuelles Wetter: Bamberg (243m)

6-stündlich | Neueste Meldungen
Ortszeit Temperatur Wetter
Di, 23.10. 8:00 0.4° C bewölkt
Di, 23.10. 2:00 1.8° C fast wolkenlos
Mo, 22.10. 20:00 9.7° C bedeckt
Mo, 22.10. 14:00 12.2° C leicht bewölkt
Mo, 22.10. 8:00 -4.1° C wolkenlos
Mo, 22.10. 2:00 -1.7° C leicht bewölkt
So, 21.10. 20:00 4.5° C wolkenlos
So, 21.10. 14:00 14.0° C wolkig
Ortszeit Temperatur Wetter
Di, 23.10. 8:30 1.4° C bewölkt
Di, 23.10. 8:20 1.4° C bewölkt
Di, 23.10. 8:10 0.8° C bewölkt
Di, 23.10. 8:00 0.4° C bewölkt
Di, 23.10. 7:50 0.4° C bewölkt
Di, 23.10. 7:40 1.0° C wolkig
Di, 23.10. 7:30 0.5° C Nebel
Di, 23.10. 7:00 1.2° C wolkig
Di, 23.10. 6:30 2.4° C leicht bewölkt
Di, 23.10. 6:00 2.8° C bedeckt
Di, 23.10. 5:30 2.9° C bedeckt
Ortszeit Relative Feuchte Sichtweite
Di, 23.10. 8:00 93% 7 km
Di, 23.10. 2:00 94% 21 km
Mo, 22.10. 20:00 76% >70 km
Mo, 22.10. 14:00 51% 30 km
Mo, 22.10. 8:00 91% 18 km
Mo, 22.10. 2:00 93% 8 km
So, 21.10. 20:00 84% 40 km
So, 21.10. 14:00 47% 45 km
Ortszeit Relative Feuchte Sichtweite
Di, 23.10. 8:30 97% 7 km
Di, 23.10. 8:20 97% -
Di, 23.10. 8:10 97% -
Di, 23.10. 8:00 93% 7 km
Di, 23.10. 7:50 93% -
Di, 23.10. 7:40 97% -
Di, 23.10. 7:30 94% 0.9 km
Di, 23.10. 7:00 92% 7 km
Di, 23.10. 6:30 95% 11 km
Di, 23.10. 6:00 95% 15 km
Di, 23.10. 5:30 94% 25 km
Ortszeit Niederschlagsmenge Niederschlagsart
Di, 23.10. 8:00 0.1 l/m2 in 12 Std. -
Di, 23.10. 2:00 0.1 l/m2 in 6 Std. Sprühregen
Mo, 22.10. 20:00 0.1 l/m2 in 12 Std. Regen
Mo, 22.10. 14:00 0.0 l/m2 in 6 Std. -
Mo, 22.10. 8:00 0.0 l/m2 in 12 Std. -
Mo, 22.10. 2:00 0.0 l/m2 in 6 Std. -
So, 21.10. 20:00 0.0 l/m2 in 12 Std. -
So, 21.10. 14:00 0.0 l/m2 in 6 Std. -
Ortszeit Niederschlagsmenge Niederschlagsart
Di, 23.10. 8:30 0.0 l/m2 in 1 Std. -
Di, 23.10. 8:20 keine Meldung -
Di, 23.10. 8:10 keine Meldung -
Di, 23.10. 8:00 0.0 l/m2 in 1 Std. -
Di, 23.10. 7:50 keine Meldung -
Di, 23.10. 7:40 keine Meldung -
Di, 23.10. 7:30 0.0 l/m2 in 1 Std. -
Di, 23.10. 7:00 0.0 l/m2 in 1 Std. -
Di, 23.10. 6:30 0.0 l/m2 in 1 Std. -
Di, 23.10. 6:00 0.0 l/m2 in 1 Std. -
Di, 23.10. 5:30 0.0 l/m2 in 1 Std. -
Ortszeit Stärke Spitze Richtung
km/h Bft. km/h Grad Sektor
Di, 23.10. 8:00 2 1 11 150° SO
Di, 23.10. 2:00 4 1 25 90° O
Mo, 22.10. 20:00 22 4 43 20° N
Mo, 22.10. 14:00 4 1 11 30° NO
Mo, 22.10. 8:00 4 1 7 110° O
Mo, 22.10. 2:00 4 1 7 120° SO
So, 21.10. 20:00 4 1 22 130° SO
So, 21.10. 14:00 6 1 22 340° N
Ortszeit Stärke Spitze Richtung
km/h Bft. km/h Grad Sektor
Di, 23.10. 8:30 6 1 9 170° S
Di, 23.10. 8:20 6 1 - 170° S
Di, 23.10. 8:10 7 2 - 170° S
Di, 23.10. 8:00 2 1 6 150° SO
Di, 23.10. 7:50 2 1 - 150° SO
Di, 23.10. 7:40 2 1 - 140° SO
Di, 23.10. 7:30 4 1 4 140° SO
Di, 23.10. 7:00 4 1 11 160° S
Di, 23.10. 6:30 4 1 11 170° S
Di, 23.10. 6:00 4 1 7 150° SO
Di, 23.10. 5:30 4 1 7 150° SO
Ortszeit Untergrenze Bedeckung Gattung
total tief tief mittel hoch
Di, 23.10. 8:00 6000 m 7/8 7/8 - - -
Di, 23.10. 2:00 1380 m 1/8 1/8 - - -
Mo, 22.10. 20:00 540 m 8/8 8/8 - - -
Mo, 22.10. 14:00 1260 m 4/8 - - - -
Mo, 22.10. 8:00 - 0/8 0/8 - - -
Mo, 22.10. 2:00 10500 m 3/8 0/8 - - -
So, 21.10. 20:00 - 0/8 0/8 - - -
So, 21.10. 14:00 1200 m 6/8 6/8 - - -
Ortszeit Bedeckungsgrad in Achtel und Wolkenuntergrenze
Di, 23.10. 8:30 4(6000m) 7(6900m) 8(8400m)
Di, 23.10. 8:20 4(6000m) 7(6900m) 8(8400m)
Di, 23.10. 8:10 4(6000m) 6(7800m) 8(8400m)
Di, 23.10. 8:00 7(6000m) 8(8700m)
Di, 23.10. 7:50 7(6000m)
Di, 23.10. 7:40 5(6000m) 6(9000m) 7(9000m)
Di, 23.10. 7:30 2(1260m) 5(9000m) 7(10500m)
Di, 23.10. 7:00 3(1200m) 6(9000m) 7(9000m)
Di, 23.10. 6:30 1(1200m) 6(9000m) 9
Di, 23.10. 6:00 9 9 9
Di, 23.10. 5:30 8(1140m)
Ortszeit Luftdruck NN (hPa) Tendenz (hPa in 3 Std.)
Di, 23.10. 8:00 1029 - 1,6
Di, 23.10. 2:00 1032 - 0,7
Mo, 22.10. 20:00 1031 + 2,8
Mo, 22.10. 14:00 1029 - 0,5
Mo, 22.10. 8:00 1031 + 1,0
Mo, 22.10. 2:00 1030 - 0,2
So, 21.10. 20:00 1029 0,0
So, 21.10. 14:00 1029 - 1,4
Ortszeit Luftdruck NN (hPa) Tendenz (hPa in 3 Std.)
Di, 23.10. 8:30 1029 - 1,9
Di, 23.10. 8:20 1029 keine Meldung
Di, 23.10. 8:10 1029 keine Meldung
Di, 23.10. 8:00 1029 - 1,6
Di, 23.10. 7:50 1029 keine Meldung
Di, 23.10. 7:40 1030 keine Meldung
Di, 23.10. 7:30 1030 - 1,6
Di, 23.10. 7:00 1029 - 2,4
Di, 23.10. 6:30 1029 - 2,3
Di, 23.10. 6:00 1030 - 2,4
Di, 23.10. 5:30 1031 - 1,6
Ortszeit Schneehöhe (cm)
Di, 23.10. 8:00 0
Di, 23.10. 2:00 0
Mo, 22.10. 20:00 0
Mo, 22.10. 14:00 0
Mo, 22.10. 8:00 0
Mo, 22.10. 2:00 0
So, 21.10. 20:00 0
So, 21.10. 14:00 0
Ortszeit Schneehöhe (cm)
Di, 23.10. 8:30 0
Di, 23.10. 8:20 0
Di, 23.10. 8:10 0
Di, 23.10. 8:00 0
Di, 23.10. 7:50 0
Di, 23.10. 7:40 0
Di, 23.10. 7:30 0
Di, 23.10. 7:00 0
Di, 23.10. 6:30 0
Di, 23.10. 6:00 0
Di, 23.10. 5:30 0
Link zu dieser Seite / Seite empfehlen

Das Wetter in ...